Regional Weather Roundup
Issued by NWS Portland, ME

Current Version | Previous Version | Text Only | Print | Product List | Glossary Off
Versions: 1 2 3 4 5 6 7 8 9 10 11 12 13 14 15 16 17 18 19 20 21 22 23 24 25 26 27 28 29 30 31 32 33 34 35 36 37 38 39 40 41 42 43 44 45 46 47 48 49 50
000 ASUS41 KGYX 280810 RWRGYX WEATHER ROUNDUP FOR MAINE AND NEW HAMPSHIRE NATIONAL WEATHER SERVICE GRAY ME 400 AM EDT SUN MAY 28 2017 MEZ002-005-006-010-012-015-018-020-021-024-026-027-029-280900- MAINE CITY SKY/WX TMP DP RH WIND PRES REMARKS PORTLAND PTCLDY 46 44 93 CALM 29.95R SANFORD FOG 42 42 100 CALM 29.95R VSB 1/4 BAR HARBOR CLEAR 41 40 96 CALM 29.95S WISCASSET FOG 46 46 100 CALM 29.97R VSB 1/4 ROCKLAND FOG 40 40 100 CALM 29.95S VSB 1/2 FRYEBURG CLOUDY 45 44 97 CALM 29.94R LEWISTONAUBURN CLEAR 45 44 97 SE3 29.95R AUGUSTA CLOUDY 45 44 97 CALM 29.95R WATERVILLE MOCLDY 43 43 100 CALM 29.93R BANGOR PTCLDY 42 41 96 CALM 29.95R GREENVILLE N/A 45 45 100 CALM 29.90R MILLINOCKET FOG 39 39 100 CALM 29.93S VSB 1/4 HOULTON CLEAR 34 34 100 CALM 29.92F PRESQUE ISLE CLEAR 40 40 100 SE9 29.91F FRENCHVILLE CLEAR 43 40 89 S10 29.88F CARIBOU CLEAR 42 40 92 S6 29.90F $$ NHZ002-005-008-009-011-012-014-280900- NEW HAMPSHIRE CITY SKY/WX TMP DP RH WIND PRES REMARKS PORTSMOUTH PTCLDY 48 47 94 NE5 29.92R ROCHESTER CLEAR 45 42 89 NW3 29.93R NASHUA MOCLDY 52 50 93 CALM 29.92S MANCHESTER PTCLDY 51 46 83 NE3 29.91R CONCORD CLEAR 48 45 89 CALM 29.92S LACONIA CLEAR 47 46 97 CALM 29.93S PLYMOUTH CLOUDY 50 49 97 CALM 29.93S BERLIN PTCLDY 41 38 89 CALM 29.92S WHITEFIELD CLEAR 42 39 89 CALM 29.91S JAFFREY CLOUDY 56 56 100 CALM 29.91F KEENE CLOUDY 55 54 96 CALM 29.90F LEBANON CLOUDY 52 50 93 CALM 29.90S MT WASHINGTON FOG 37 37 100 NW14 N/A VSB 1/8 $$ VTZ005-007-008-280900- VERMONT CITY SKY/WX TMP DP RH WIND PRES REMARKS ST JOHNSBURY N/A 49 49 100 MISG 29.90R MONTPELIER FOG 45 45 100 CALM 29.93F VSB 1/4 BURLINGTON MOCLDY 52 50 93 CALM 29.90S $$ MAZ007-012-024-CTZ003-RIZ002-NYZ038-NYZ072-280900- SOUTHERN NEW ENGLAND AND NY CITY SKY/WX TMP DP RH WIND PRES REMARKS BOSTON MOCLDY 56 52 86 SW9 29.92R WORCESTER CLOUDY 56 52 86 W5 29.91F NANTUCKET CLEAR 46 44 93 SE6 29.93S PROVIDENCE CLOUDY 55 55 100 S7 29.94R HARTFORD CLOUDY 57 54 89 S5 29.91F ALBANY CLOUDY 61 55 81 SE3 29.88F NEW YORK CITY CLEAR 60 56 86 E6 29.89F $$ ANZ081-ANZ082-ANZ150-NHZ014-MEZ023>029-280900- COASTAL MARINE OBSERVATIONS STATION/POSITION TIME TEMP WIND PRES WAVE AIR SEA DIR/SP/G HT/PER (UTC) (F) (DEG/KT/KT) (MB) (FT/S) MOUNT DESERT ROC 0800 45 1014.2R MATINICUS ROCK 0700 46 300/ 2/ 3 1013.8S ISLE OF SHOALS 0700 51 120/ 9/ 10 1012.8F JEFFREYS LEDGE 0706 49 N/A 3/ 9 CASHES LEDGE BUO 0750 46 48 1014.0F 3/ 8 GEORGES BANK BUO 0750 47 47 1012.3R 5/ 9 $$ .............KEY.............. WCI - WIND CHILL TC - TEMPERATURE IN CELSIUS VSB - VISIBILITY IN MILES HX - HEAT INDEX FAIR- INDICATES FEW OR NO CLOUDS BELOW 12,000 FT, WITH NO SIGNIFICANT WEATHER AND/OR OBSTRUCTIONS TO VISIBILITY.

USA.gov is the U.S. government's official web portal to all federal, state and local government web resources and services.